1330992027971,4.02359
1330992087971,4.01401
1330992147971,4.02157
1330992207971,4.19289
1330992267971,3.99924
1330992327971,3.99365
1330992387971,3.99306
1330992447971,3.94141
1330992507971,3.95107
1330992567971,3.96637
1330992627971,3.90722
1330992687971,3.92740
1330992747971,3.90610
1330992807971,3.90816
1330992867971,3.90582
1330992927971,3.90347
1330992987971,3.90240
1330993047971,3.90242
1330993107971,3.92423
1330993167971,3.93702
1330993227971,3.89556
1330993287971,3.91843
1330993347971,3.90789
1330993407971,3.93490
1330993467971,3.96998
1330993527971,4.02396
1330993587971,4.16421
1330993647971,4.41392
1330993707971,4.72224
1330993767971,4.88286
1330993827971,4.78814
1330993887971,4.51244
1330993947971,4.29997
1330994007971,4.13649
1330994067971,4.01148
1330994127971,3.96633
1330994187971,4.00715
1330994247971,3.93899
1330994307971,3.93642
1330994367971,3.92583
1330994427971,3.93923
1330994487971,3.91759
1330994547971,3.93964
1330994607971,3.94058
1330994667971,3.92779
1330994727971,3.93835
1330994787971,3.96028
1330994847971,3.90176
1330994907971,3.89307
1330994967971,3.89539
1330995027971,3.89517
1330995087971,3.89069
1330995147971,3.87622
1330995207971,3.87043
1330995267971,3.90922
1330995327971,3.86988
1330995387971,3.88912
1330995447971,3.89607
1330995507971,3.90477
1330995567971,3.91104
1330995627984,3.87390
1330995687984,3.90094
1330995747984,3.87600
1330995807984,3.87191
1330995867984,3.86878
1330995927984,3.89338
1330995987984,3.89362
1330996047984,3.88976
1330996107984,3.89295
1330996167984,3.93370
1330996227984,3.89485
1330996287984,3.88573
1330996347984,3.88146
1330996407984,3.88371
1330996467984,3.89620
1330996527984,3.90663
1330996587984,4.04391
1330996647984,4.04126
1330996707984,4.09700
1330996767984,4.08501
1330996827984,4.13699
1330996887984,4.10722
1330996947984,4.08092
1330997007984,4.07663
1330997067984,4.03634
1330997127984,4.01554
1330997187984,3.94698
1330997247984,3.97406
1330997307984,3.96609
1330997367984,3.99199
1330997427984,3.95740
1330997487984,3.97461
1330997547984,3.97529
1330997607984,3.98536
1330997667984,3.97985
1330997727984,3.92895
1330997787984,3.95068
1330997847984,3.91053
1330997907984,3.96032
1330997967984,4.00787
1330998027984,4.03584
1330998087984,4.06591
1330998147984,4.31742
1330998207984,4.62393
1330998267984,4.78067
1330998327984,4.88132
1330998387984,4.87616
1330998447984,4.73331
1330998507984,4.61865
1330998567984,4.51389
1330998627984,4.38073
1330998687984,4.28592
1330998747984,4.19747
1330998807984,4.15458
1330998867984,4.14186
1330998927984,4.14911
1330998987984,4.08854
1330999047984,4.11884
1330999107984,4.05421
1330999167984,4.06440
1330999227997,4.09991
1330999287997,4.14751
1330999347997,4.08850
1330999407997,4.06172
1330999467997,4.11235
1330999527997,4.05494
1330999587997,4.06043
1330999647997,3.96600
1330999707997,3.98270
1330999767997,3.96022
1330999827997,3.92339
1330999887997,3.91446
1330999947997,3.91819
1331000007997,3.91224
1331000067997,3.96598
1331000127997,3.96514
1331000187997,3.92871
1331000247997,3.92617
1331000307997,3.92382
1331000367997,3.87890
1331000427997,3.89740
1331000487997,3.88825
1331000547997,3.86074
1331000607997,3.86430
1331000667997,3.87597
1331000727997,3.84108
1331000787997,3.87799
1331000847997,3.88511
1331000907997,3.90537
1331000967997,3.94710
1331001027997,3.95109
1331001087997,3.95059
1331001147997,3.91418
1331001207997,3.91852
1331001267997,3.90474
1331001327997,3.93838
1331001387997,3.90434
1331001447997,3.91910
1331001507997,3.87902
1331001567997,3.87763
1331001627997,3.89991
1331001687997,3.89760
1331001747997,3.89778
1331001807997,3.89432
1331001867997,3.89183
1331001927997,3.91280
1331001987997,3.86945
1331002047997,3.88006
1331002107997,3.88373
1331002167997,3.89764
1331002227997,3.86972
1331002287997,3.89387
1331002347997,3.88188
1331002407997,3.89761
1331002467997,3.89644
1331002527997,3.87650
1331002587997,3.86671
1331002647997,3.86775
1331002707997,3.88899
1331002767997,3.88008
1331002828011,3.88511
1331002888011,3.92039
1331002948011,3.88084
1331003008011,3.89642
1331003068011,3.93214
1331003128011,3.92894
1331003188011,3.91037
1331003248011,3.93951
1331003308011,3.91533
1331003368011,3.91326
1331003428011,3.92695
1331003488011,3.95505
1331004028011,3.96642
1331004088011,3.98788
1331004148011,4.05115
1331004208011,4.05463
1331004268011,4.04154
1331004328011,4.02483
1331004388011,4.14134
1331004448011,4.24939
1331004508011,4.37858
1331004568011,4.40793
1331004628011,4.35467
1331004688011,4.35921
1331004748011,4.31303
1331004808011,4.22044
1331004868011,4.19317
1331004928011,4.17150
1331004988011,4.09529
1331005048011,4.05068
1331005108011,4.04978
1331005168011,4.06053
1331005228011,4.03684
1331005288011,3.98667
1331005348011,4.00491
1331005408011,3.99185
1331005468011,3.96914
1331005528011,3.95128
1331005588011,3.94368
1331005648011,3.92780
1331005708011,3.93001
1331005768011,3.96151
1331005828011,3.90530
1331005888011,3.93775
1331005948011,3.91572
1331006008011,3.93141
1331006068011,3.93421
1331006128011,3.94281
1331006188011,3.93914
1331006248011,3.94697
1331006308011,3.93495
1331006368011,3.93807
1331006428024,4.02519
1331006488024,4.02742
1331006548024,4.06345
1331006608024,4.15591
1331006668024,4.32493
1331006728024,4.35468
1331006788024,4.33446
1331006848024,4.28526
1331006908024,4.23071
1331006968024,4.19706
1331007028024,4.14508
1331007088024,4.11470
1331007148024,4.06430
1331007208024,4.07702
1331007268024,4.04053
1331007328024,4.04816
1331007388024,4.01757
1331007448024,3.96387
1331007508024,3.98030
1331007568024,3.94394
1331007628024,3.94564
1331007688024,3.93214
1331007748024,3.94547
1331007808024,3.91474
1331007868024,3.91652
1331007928024,3.91533
1331007988024,3.93589
1331008048024,3.90687
1331008108024,3.90032
1331008168024,3.88875
1331008228024,3.93412
1331008288024,3.93574
1331008348024,3.91568
1331008408024,3.93640
1331008468024,3.93856
1331008528024,3.90977
1331008588024,3.89886
1331008648024,3.94186
1331008708024,3.91385
1331008768024,3.93220
1331008828024,3.91797
1331008888024,3.94619
1331008948024,3.95998
1331009008024,3.96682
1331009068024,3.93299
1331009128024,3.93809
1331009188024,3.95126
1331009248024,3.94731
1331009308024,3.96324
1331009368024,3.93275
1331009428024,3.96305
1331009488024,3.97335
1331009548024,3.93517
1331009608024,3.97209
1331009668024,3.98446
1331009728024,3.93185
1331009788024,3.89978
1331009848024,3.91703
1331009908024,3.92237
1331009968024,3.88515
1331010028038,3.93331
1331010088038,3.86997
1331010148038,3.89919
1331010208038,3.92126
1331010268038,3.92056
1331010328038,3.89977
1331010388038,3.91959
1331010448038,3.93686
1331010508038,3.91412
1331010568038,3.94865
1331010628038,3.90976
1331010688038,3.89961
1331010748038,3.90758
1331010808038,3.90404
1331010868038,3.86599
1331010928038,3.91257
1331010988038,3.91329
1331011048038,3.92903
1331011108038,3.91000
1331011168038,3.88372
1331011228038,3.92461
1331011288038,3.96282
1331011348038,3.97871
1331011408038,3.93142
1331011468038,3.96407
1331011528038,3.98262
1331011588038,3.93506
1331011648038,4.00214
1331011708038,4.00855
1331011768038,4.05016
1331011828038,3.98616
1331011888038,3.94732
1331011948038,3.93756
1331012008038,3.93227
1331012068038,3.90615
1331012128038,3.91838
1331012188038,3.94471
1331012248038,3.94026
1331012308038,3.89761
1331012368038,3.95065
1331012428038,3.92907
1331012488038,3.92946
1331012548038,3.96311
1331012608038,3.96992
1331012668038,3.90962
1331012728038,3.94259
1331012788038,3.92457
1331012848038,3.91056
1331012908038,3.92223
1331012968038,3.91916
1331013028038,3.93798
1331013088038,4.00023
1331013148038,4.03047
1331013208038,4.03651
1331013268038,4.08593
1331013328038,4.05699
1331013388038,3.99688
1331013448038,3.99000
1331013508038,3.94432
1331013568038,3.94743
1331013628052,3.91978
1331013688052,3.87638
1331013748052,3.90376
1331013808052,4.00939
1331013868052,3.96333
1331013928052,3.97026
1331013988052,3.96111
1331014048052,3.94203
1331014108052,3.96967
1331014168052,3.92044
1331014228052,3.92348
1331014288052,3.94588
1331014348052,3.95607
1331014408052,3.93838
1331014468052,3.92197
1331014528052,3.91158
1331014588052,3.89201
1331014648052,3.90482
1331014708052,3.88634
1331014768052,3.89211
1331014828052,3.88972
1331014888052,3.91498
1331014948052,3.90164
1331015008052,3.88518
1331015068052,3.84194
1331015128052,3.84682
1331015188052,3.90521
1331015248052,3.87764
1331015308052,3.92040
1331015368052,3.90812
1331015428052,3.95817
1331015488052,3.92957
1331015548052,3.93317
1331015608052,3.93373
1331015668052,3.92533
1331015728052,3.89888
1331015788052,3.85295
1331015848052,3.87622
1331015908052,3.90181
1331015968052,3.87999
1331016028052,3.86597
1331016088052,3.91539
1331016148052,3.89352
1331016208052,3.89398
1331016268052,4.01185
1331016328052,3.89782
1331016388052,3.88299
1331016448052,3.89288
1331016508052,3.88658
1331016568052,3.93867
1331016628052,3.98441
1331016688052,3.96486
1331016748052,3.97717
1331016808052,3.94632
1331016868052,3.92695
1331016928052,3.93056
1331016988052,3.89925
1331017048052,3.86129
1331017108052,3.89707
1331017168052,3.86347
1331017228065,3.83408
1331018848065,3.96710
1331018908065,3.93207
1331018968065,3.91632
1331019028065,3.89113
1331019088065,3.89267
1331019148065,3.89019
1331019208065,3.92051
1331019268065,3.92888
1331019328065,3.97343
1331019388065,4.02413
1331019448065,4.08106
1331019508065,4.13133
1331019568065,4.14869
1331019628065,4.09568
1331019688065,4.03722
1331019748065,4.01804
1331019808065,4.11685
1331019868065,4.14529
1331019928065,4.18340
1331019988065,4.07750
1331020048065,4.07806
1331020108065,4.02923
1331020168065,4.04656
1331020228065,4.09841
1331020288065,4.11143
1331020348065,4.07217
1331020408065,4.06185
1331020468065,4.16621
1331020528065,4.25085
1331020588065,4.27620
1331020648065,4.24121
1331020708065,4.25948
1331020768065,4.23393
1331020828079,4.12841
1331020888079,4.06014
1331020948079,3.99008
1331021008079,4.01434
1331021068079,3.94579
1331021128079,3.91602
1331021188079,3.92411
1331021248079,3.94972
1331021308079,3.94274
1331021368079,3.93775
1331021428079,3.92354
1331021488079,3.87852
1331021548079,3.88512
1331021608079,3.87954
1331021668079,3.87178
1331021728079,3.88553
1331021788079,3.89411
1331021848079,3.86546
1331021908079,3.87707
1331021968079,3.88647
1331022028079,3.86248
1331022088079,3.91354
1331022148079,3.89327
1331022208079,3.88638
1331022268079,3.94153
1331022328079,3.90270
1331022388079,3.92677
1331022448079,3.92396
1331022508079,3.91640
1331022568079,3.91124
1331022628079,3.91587
1331022688079,3.93747
1331022748079,3.90519
1331022808079,3.85617
1331022868079,3.88613
1331022928079,3.92886
1331022988079,3.92053
1331023048079,3.89254
1331023108079,3.88419
1331023168079,3.90404
1331023228079,3.89499
1331023288079,3.92625
1331023348079,4.01399
1331023408079,4.04514
1331023468079,4.08533
1331023528079,4.22011
1331023588079,4.34635
1331023648079,4.44315
1331023708079,4.50622
1331023768079,4.44066
1331023828079,4.34552
1331023888079,4.31719
1331023948079,4.22138
1331024008079,4.12155
1331024068079,4.10961
1331024128079,4.03252
1331024188079,3.96639
1331024248079,3.96300
1331024308079,3.96776
1331024368079,3.97376
1331024428092,3.92782
1331024488092,3.94039
1331024548092,3.90751
1331024608092,3.90117
1331024668092,3.88170
1331024728092,4.24244
1331024788092,3.86004
1331024848092,3.86947
1331024908092,3.88701
1331024968092,3.86012
1331025028092,3.85820
1331025088092,3.85136
1331025148092,3.87668
1331025208092,3.86829
1331025268092,3.88857
1331025328092,3.85772
1331025388092,3.87405
1331025448092,3.83730
1331025508092,3.84044
1331025568092,3.86470
1331025628092,3.84023
1331025688092,3.84797
1331025748092,3.84799
1331025808092,3.85188
1331025868092,3.89197
1331025928092,3.86040
1331025988092,3.89342
1331026048092,3.87718
1331026108092,3.86323
1331026168092,3.93890
1331026228092,3.89000
1331026288092,3.92857
1331026348092,3.90112
1331026408092,3.92170
1331026468092,3.91467
1331026528092,3.91108
1331026588092,3.91936
1331026648092,3.94694
1331026708092,3.92493
1331026768092,3.98054
1331026828092,3.95029
1331026888092,3.98916
1331026948092,3.96425
1331027008092,3.94475
1331027068092,3.99329
1331027128092,3.99135
1331027188092,3.97273
1331027248092,4.00422
1331027308092,4.00322
1331027368092,4.00012
1331027428092,3.99302
1331027488092,3.98061
1331027548092,3.95601
1331027608092,3.98584
1331027668092,3.99145
1331027728092,3.96536
1331027788092,3.96397
1331027848092,3.94292
1331027908092,3.95024
1331027968092,3.96413
1331028028106,3.92731
1331028088106,3.96465
1331028148106,3.96537
1331028208106,3.98220
1331028268106,3.99598
1331028328106,3.97292
1331028388106,3.96671
1331028448106,3.96948
1331028508106,3.94448
1331028568106,3.95406
1331028628106,3.94169
1331028688106,3.96133
1331028748106,3.92803
1331028808106,3.95015
1331028868106,3.91448
1331028928106,3.90307
1331028988106,3.93134
1331029048106,3.91357
1331029108106,3.91817
1331029168106,3.91237
1331029228106,3.92668
1331029288106,3.93425
1331029348106,3.91860
1331029408106,3.91288
1331029468106,3.90471
1331029528106,3.93664
1331029588106,3.91230
1331029648106,3.89321
1331029708106,3.92402
1331029768106,3.91231
1331029828106,3.88837
1331029888106,3.93874
1331029948106,3.90737
1331030008106,3.90475
1331030068106,3.91217
1331030128106,3.95212
1331030188106,3.97503
1331030248106,4.01338
1331030308106,3.97019
1331030368106,3.96298
1331030428106,4.00534
1331030488106,4.01751
1331030548106,3.98511
1331030608106,3.99886
1331030668106,4.01318
1331030728106,4.00924
1331030788106,3.99314
1331030848106,4.10350
1331030908106,3.99009
1331030968106,3.99710
1331031028106,3.93398
1331031088106,3.96681
1331031148106,3.96547
1331031208106,3.95649
1331031268106,3.91309
1331031328106,3.91417
1331031388106,3.93641
1331031448106,3.91793
1331031508106,3.92710
1331031568106,3.91376
1331031628120,3.88860
1331031688120,3.91246
1331031748120,3.88958
1331031808120,3.90537
1331031868120,3.91804
1331031928120,3.89382
1331031988120,3.92501
1331032048120,3.91233
1331032108120,3.91838
1331032168120,3.90510
1331032228120,3.91892
1331032288120,3.92761
1331032348120,3.97330
1331032408120,3.97985
1331032468120,4.01912
1331032528120,4.06857
1331032588120,4.03783
1331032648120,4.02707
1331032708120,4.00798
1331032768120,4.01839
1331032828120,4.00881
1331032888120,3.99524
1331032948120,3.99403
1331033008120,3.97872
1331033068120,4.02012
1331033128120,4.00271
1331033188120,3.98318
1331033248120,3.97856
1331033308120,3.98203
1331033368120,3.96167
1331033428120,3.96077
1331033488120,3.91645
1331033548120,3.93743
1331033608120,3.92147
1331033668120,3.92548
1331033728120,3.97428
1331033788120,3.94488
1331033848120,3.92608
1331033908120,3.93831
1331033968120,3.94319
1331034028120,3.94919
1331034088120,3.95095
1331034148120,3.94373
1331034208120,3.93527
1331034268120,3.97377
1331034328120,3.94112
1331034388120,3.92697
1331034448120,3.93217
1331034508120,3.93647
1331034568120,3.93863
1331034628120,3.95177
1331034688120,3.95932
1331034748120,3.98353
1331034808120,3.94845
1331034868120,3.95562
1331034928120,3.95459
1331034988120,3.96386
1331035048120,3.98524
1331035108120,3.99575
1331035168120,3.95931
1331035228133,3.95662
1331035288133,3.96827
1331035348133,3.99490
1331035408133,3.90807
1331035468133,3.93928
1331035528133,3.97184
1331035588133,3.92418
1331035648133,3.92917
1331035708133,3.94435
1331035768133,3.94705
1331035828133,3.92374
1331035888133,3.91406
1331035948133,3.90833
1331036008133,3.97209
1331036068133,3.93475
1331036128133,3.92451
1331036188133,3.93986
1331036248133,3.91736
1331036308133,3.89184
1331036368133,3.93584
1331036428133,3.93952
1331036488133,3.91012
1331036548133,3.91125
1331036608133,3.92258
1331036668133,3.93025
1331036728133,3.98781
1331036788133,4.03565
1331036848133,4.03771
1331036908133,4.01768
1331036968133,4.05196
1331037028133,4.16406
1331037088133,4.21863
1331037148133,4.34388
1331037208133,4.41394
1331037268133,4.54574
1331037328133,4.64858
1331037388133,4.69285
1331037448133,4.85259
1331037508133,4.95395
1331037568133,4.97308
1331037628133,5.29949
1331037688133,5.45770
1331037748133,5.48028
1331037808133,5.57439
1331037868133,5.63253
1331037928133,5.66080
1331037988133,5.63132
1331038048133,5.63137
1331038108133,5.64406
1331038168133,5.53543
1331038228133,5.50487
1331038288133,5.42221
1331038348133,5.35015
1331038408133,5.24980
1331038468133,5.15974
1331038528133,5.05248
1331038588133,4.90876
1331038648133,4.82161
1331038708133,4.73018
1331038768133,4.64985
1331038828147,4.55364
1331038888147,4.51513
1331038948147,4.44322
1331039008147,4.37449
1331039068147,4.32987
1331039128147,4.30444
1331039188147,4.31663
1331039248147,4.27957
1331039308147,4.29450
1331039368147,4.37042
1331039428147,4.38232
1331039488147,4.29576
1331039548147,4.21233
1331039608147,4.16944
1331039668147,4.18247
1331039728147,4.13594
1331039788147,4.14662
1331039848147,4.11698
1331039908147,4.04707
1331039968147,4.07876
1331040028147,4.08812
1331040088147,4.05332
1331040148147,4.08019
1331040208147,4.05582
1331040268147,4.04885
1331040328147,4.06430
1331040388147,4.03340
1331040448147,4.04795
1331040508147,4.08468
1331040568147,4.09662
1331040628147,4.09509
1331040688147,4.07710
1331040748147,4.05554
1331040808147,4.05823
1331040868147,4.04655
1331040928147,4.04023
1331040988147,4.01710
1331041048147,4.00723
1331041108147,4.02738
1331041168147,4.01192
1331041228147,3.97207
1331041288147,3.99000
1331041348147,3.98860
1331041408147,3.96472
1331041468147,3.99725
1331041528147,3.95273
1331041588147,3.96787
1331041648147,3.95277
1331041708147,3.93813
1331041768147,3.89327
1331041828147,3.95376
1331041888147,3.95351
1331041948147,3.93988
1331042008147,3.95489
1331042068147,3.95043
1331042128147,3.92003
1331042188147,3.93045
1331042248147,3.96168
1331042308147,3.93235
1331042368147,3.97955
1331042428160,3.93661
1331042488160,3.98449
1331042548160,3.96760
1331042608160,3.91383
1331042668160,3.97439
1331042728160,3.90879
1331042788160,3.90433
1331042848160,3.87523
1331042908160,3.89876
1331042968160,3.86769
1331043028160,3.90919
1331043088160,3.90458
1331043148160,3.89686
1331043208160,3.88409
1331043268160,3.87242
1331043328160,3.86880
1331043388160,3.88658
1331043448160,3.90318
1331043508160,3.89035
1331043568160,3.87133
1331043628160,3.84685
1331043688160,3.90064
1331043748160,3.88326
1331043808160,3.86516
1331043868160,3.85236
1331043928160,3.86897
1331043988160,3.87643
1331044048160,3.90077
1331044108160,3.85307
1331044168160,3.88199
1331044228160,3.84727
1331044288160,3.88641
1331044348160,3.86257
1331044408160,3.84128
1331044468160,3.87938
1331044528160,3.84242
1331044588160,3.84778
1331044648160,3.85539
1331044708160,3.84132
1331044768160,3.87174
1331044828160,3.84626
1331044888160,3.83983
1331044948160,3.87287
1331045008160,3.88718
1331045068160,3.84283
1331045128160,3.83283
1331045188160,3.88719
1331045248160,3.88470
1331045308160,3.85722
1331045368160,3.84460
1331045428160,3.84116
1331045488160,3.79229
1331045548160,3.87390
1331045608160,3.86157
1331045668160,3.84065
1331045728160,3.85566
1331045788160,3.85141
1331045848160,3.84991
1331045908160,3.81229
1331045968160,3.80868
1331046028174,3.82746
1331046088174,3.82294
1331046148174,3.82357
1331046208174,3.80166
1331046268174,3.80309
1331046328174,3.84306
1331046388174,3.83435
1331046448174,3.83729
1331046508174,3.82264
1331046568174,3.83476
1331046628174,3.82888
1331046688174,3.81502
1331046748174,3.81561
1331046808174,3.82713
1331046868174,3.81014
1331046928174,3.85207
1331046988174,3.83276
1331047048174,3.82581
1331047108174,3.82164
1331047168174,3.86777
1331047228174,3.82958
1331047288174,3.83014
1331047348174,3.86752
1331047408174,3.85473
1331047468174,3.80491
1331047528174,3.81444
1331047588174,3.83825
1331047648174,3.82193
1331047708174,3.81765
1331047768174,3.82363
1331047828174,3.86112
1331047888174,3.84430
1331047948174,3.84131
1331048008174,3.83672
1331048068174,3.81725
1331048128174,3.83451
1331048188174,3.85168
1331048248174,3.84704
1331048308174,3.85962
1331048368174,3.86955
1331048428174,3.83129
1331048488174,3.88291
1331048548174,3.86464
1331048608174,3.81300
1331048668174,3.85238
1331048728174,3.86700
1331048788174,3.80076
1331048848174,3.82168
1331048908174,3.83029
1331048968174,3.83707
1331049028174,3.84805
1331049088174,3.82185
1331049148174,3.84250
1331049208174,3.82117
1331049268174,3.85147
1331049328174,3.85887
1331049388174,3.85269
1331049448174,3.87528
1331049508174,3.83961
1331049568174,3.83188
1331049628187,3.84262
1331049688187,3.86336
1331049748187,3.86979
1331049808187,3.82517
1331049868187,3.89710
1331049928187,3.85523
1331049988187,3.85473
1331050048187,3.83843
1331050108187,3.86200
1331050168187,3.84540
1331050228187,3.85884
1331050288187,3.85160
1331050348187,3.88758
1331050408187,3.88255
1331050468187,3.88058
1331050528187,3.85519
1331050588187,3.87898
1331050648187,3.89482
1331050708187,3.89450
1331050768187,3.85994
1331050828187,3.91464
1331050888187,3.88729
1331050948187,3.92188
1331051008187,3.90009
1331051068187,3.90035
1331051128187,3.88747
1331051188187,3.86299
1331051248187,3.85493
1331051308187,3.89563
1331051368187,3.90351
1331051428187,3.88200
1331051488187,3.87685
1331051548187,3.88816
1331051608187,3.86836
1331051668187,3.87687
1331051728187,3.87956
1331051788187,3.85713
1331051848187,3.89384
1331051908187,3.88223
1331051968187,3.88956
1331052028187,3.91278
1331052088187,3.90883
1331052148187,3.87676
1331052208187,3.90419
1331052268187,3.92294
1331052328187,3.89743
1331052388187,3.93229
1331052448187,3.95018
1331052508187,3.98298
1331052568187,4.05611
1331052628187,4.11798
1331052688187,4.16063
1331052748187,4.13504
1331052808187,4.11097
1331052868187,4.04214
1331052928187,4.02473
1331052988187,4.00046
1331053048187,3.94746
1331053108187,3.96068
1331053168187,3.97922
1331053228200,3.96453
1331053288200,3.97029
1331053348200,3.94290
1331053408200,3.94641
1331053468200,3.95292
1331053528200,3.91391
1331053588200,3.93030
1331053648200,3.93798
1331053708200,3.92386
1331053768200,3.91350
1331053828200,3.89029
1331053888200,3.86178
1331053948200,3.90726
1331054008200,3.90214
1331054068200,3.92184
1331054128200,3.88407
1331054188200,3.87276
1331054248200,3.93293
1331054308200,3.94279
1331054368200,3.92443
1331054428200,3.99586
1331054488200,3.94705
1331054548200,3.95267
1331054608200,3.94697
1331054668200,3.94428
1331054728200,3.91629
1331054788200,3.94112
1331054848200,3.89740
1331054908200,3.92833
1331054968200,3.89362
1331055028200,3.91086
1331055088200,3.91063
1331055148200,3.88990
1331055208200,3.91207
1331055268200,3.89213
1331055328200,3.88547
1331055388200,3.89322
1331055448200,3.89600
1331055508200,3.92381
1331055568200,3.90813
1331055628200,3.88246
1331055688200,3.90991
1331055748200,3.89330
1331055808200,3.87141
1331055868200,3.86216
1331055928200,3.85038
1331055988200,3.86958
1331056048200,3.89430
1331056108200,3.87946
1331056168200,3.89109
1331056228200,3.89382
1331056288200,3.89633
1331056348200,3.90592
1331056408200,3.87642
1331056468200,3.88227
1331056528200,3.89430
1331056588200,3.89493
1331056648200,3.85784
1331056708200,3.87814
1331056768200,3.85734
1331056828213,3.87903
1331056888213,3.87704
1331056948213,3.88284
1331057008213,3.89292
1331057068213,3.87011
1331057128213,3.90130
1331057188213,3.88790
1331057248213,3.85719
1331057308213,3.84738
1331057368213,3.86864
1331057428213,3.87841
1331057488213,3.88632
1331057548213,3.87362
1331057608213,3.90886
1331057668213,3.89425
1331057728213,3.89569
1331057788213,3.94591
1331057848213,3.89172
1331057908213,3.87540
1331057968213,3.89387
1331058028213,3.87219
1331058088213,3.84649
1331058148213,3.86439
1331058208213,3.85243
1331058268213,3.88496
1331058328213,3.87157
1331058388213,3.89173
1331058448213,3.88537
1331058508213,3.89399
1331058568213,3.88474
1331058628213,3.89922
1331058688213,3.90185
1331058748213,3.90548
1331058808213,3.94445
1331058868213,3.93221
1331058928213,3.95086
1331058988213,3.94831
1331059048213,3.96629
1331059108213,3.92007
1331059168213,3.93168
1331059228213,3.92869
1331059288213,3.94022
1331059348213,3.93964
1331059408213,3.95501